Torna al catalogo

METEOR 3-6

AttivoMeteoPO
NORAD 22969·PAYLOAD·🇷🇺 Russia

Lanciato Jan 25, 1994 da Plesetsk Cosmodrome

Loading…

Prossimi Passaggi (prossime 24 ore)

TLE

AggiornatoSource: Space-Track

Epoca: Sep 14, 2026, 06:37 UTC

1 22969U 94003A   26257.27634163  .00000150  00000-0  35761-3 0  9999
2 22969  82.5654  24.3775 0014647 349.5775  10.5042 13.17064207568967

Traccia METEOR 3-6 in tempo reale con AllMySat

Download on the App Store